Location: Observatory
(52.1446°N, 0.4624°W)
Time: 08:57:18
(UTC+00:00)

ISS - Pass Details

Date: 26 January 2019
Orbit: 403 x 411 km, 51.6° (Epoch: 16 February)

Event Time Altitude Azimuth Distance (km) Brightness Sun altitude
Rises 18:11:32 0° 226° (SW) 2,327 1.1 -14.2°
Reaches altitude 10° 18:13:44 10° 216° (SW) 1,471 -0.3 -14.5°
Maximum altitude 18:16:41 31° 152° (SSE) 747 -2.7 -15.0°
Enters shadow 18:17:36 26° 120° (ESE) 844 -2.7 -15.1°
